• In Germany
  • List of Countries
  • For 7 days
  • Water Temperature
  • Satellite Maps
  • Weather Map
  • Weather Widgets
  • user-avatar
    Login

    Hourly Weather Tibissa

    Today, 20 September, Wednesday

    Time Temperature Precipitation Wind Pressure Humidity
    00:00 +18°C° 0 mm 4 mps 688 mmHg 59%
    01:00 +17°C° 0 mm 3 mps 688 mmHg 62%
    02:00 +17°C° 0 mm 2 mps 688 mmHg 63%
    03:00 +17°C° 0 mm 2 mps 687 mmHg 64%
    04:00 +16°C° 0 mm 1 mps 687 mmHg 66%
    05:00 +16°C° 0 mm 1 mps 687 mmHg 66%
    06:00 +16°C° 0 mm 1 mps 688 mmHg 66%
    07:00 +16°C° 0 mm 2 mps 688 mmHg 65%
    08:00 +17°C° 0 mm 3 mps 688 mmHg 60%
    09:00 +18°C° 0 mm 3 mps 689 mmHg 55%
    10:00 +19°C° 0 mm 4 mps 689 mmHg 50%
    11:00 +20°C° 0 mm 4 mps 689 mmHg 47%
    12:00 +21°C° 0 mm 4 mps 689 mmHg 44%
    13:00 +22°C° 0 mm 4 mps 689 mmHg 41%
    14:00 +22°C° 0 mm 4 mps 689 mmHg 40%
    15:00 +22°C° 0 mm 4 mps 689 mmHg 38%
    16:00 +23°C° 0 mm 4 mps 689 mmHg 37%
    17:00 +22°C° 0 mm 4 mps 689 mmHg 40%
    18:00 +21°C° 0 mm 4 mps 689 mmHg 42%
    19:00 +21°C° 0 mm 4 mps 689 mmHg 44%
    20:00 +20°C° 0 mm 3 mps 689 mmHg 47%
    21:00 +19°C° 0 mm 3 mps 689 mmHg 50%
    22:00 +18°C° 0 mm 2 mps 689 mmHg 53%
    23:00 +18°C° 0 mm 2 mps 689 mmHg 54%

    Tomorrow, 21 September, Thursday

    Time Temperature Precipitation Wind Pressure Humidity
    00:00 +18°C° 0 mm 2 mps 689 mmHg 56%
    01:00 +18°C° 0 mm 1 mps 689 mmHg 57%
    02:00 +18°C° 0 mm 1 mps 689 mmHg 58%
    03:00 +18°C° 0 mm 1 mps 688 mmHg 60%
    04:00 +16°C° 0 mm 1 mps 688 mmHg 61%
    05:00 +16°C° 0 mm 1 mps 688 mmHg 61%
    06:00 +16°C° 0 mm 1 mps 688 mmHg 61%
    07:00 +16°C° 0 mm 1 mps 688 mmHg 61%
    08:00 +18°C° 0 mm 2 mps 689 mmHg 57%
    09:00 +19°C° 0 mm 2 mps 689 mmHg 52%
    10:00 +20°C° 0 mm 2 mps 689 mmHg 48%
    11:00 +23°C° 0 mm 2 mps 689 mmHg 43%
    12:00 +24°C° 0 mm 2 mps 689 mmHg 38%
    13:00 +25°C° 0 mm 2 mps 689 mmHg 33%
    14:00 +26°C° 0 mm 2 mps 689 mmHg 31%
    15:00 +27°C° 0 mm 2 mps 689 mmHg 28%
    16:00 +27°C° 0 mm 2 mps 688 mmHg 26%
    17:00 +26°C° 0 mm 2 mps 688 mmHg 28%
    18:00 +26°C° 0 mm 2 mps 688 mmHg 30%
    19:00 +25°C° 0 mm 2 mps 688 mmHg 32%
    20:00 +24°C° 0 mm 2 mps 688 mmHg 35%
    21:00 +24°C° 0 mm 2 mps 688 mmHg 38%
    22:00 +23°C° 0 mm 2 mps 689 mmHg 41%
    23:00 +21°C° 0 mm 2 mps 689 mmHg 44%

    Day after tomorrow, 22 September, Friday

    Time Temperature Precipitation Wind Pressure Humidity
    00:00 +21°C° 0 mm 2 mps 688 mmHg 47%
    01:00 +20°C° 0 mm 2 mps 688 mmHg 49%
    02:00 +21°C° 0 mm 1 mps 688 mmHg 51%
    03:00 +20°C° 0 mm 1 mps 688 mmHg 54%
    04:00 +20°C° 0 mm 1 mps 687 mmHg 56%
    05:00 +20°C° 0 mm 1 mps 687 mmHg 56%
    06:00 +20°C° 0 mm 1 mps 688 mmHg 56%
    07:00 +20°C° 0 mm 1 mps 688 mmHg 55%
    08:00 +22°C° 0 mm 1 mps 688 mmHg 49%
    09:00 +23°C° 0 mm 1 mps 689 mmHg 42%
    10:00 +25°C° 0 mm 2 mps 689 mmHg 35%
    11:00 +26°C° 0 mm 2 mps 689 mmHg 32%
    12:00 +27°C° 0 mm 2 mps 689 mmHg 29%
    13:00 +28°C° 0 mm 2 mps 689 mmHg 25%
    14:00 +28°C° 0 mm 2 mps 689 mmHg 24%
    15:00 +29°C° 0 mm 2 mps 689 mmHg 24%
    16:00 +29°C° 0 mm 2 mps 689 mmHg 23%
    17:00 +28°C° 0 mm 2 mps 689 mmHg 25%
    18:00 +28°C° 0 mm 3 mps 689 mmHg 28%
    19:00 +27°C° 0 mm 3 mps 689 mmHg 30%
    20:00 +26°C° 0 mm 3 mps 689 mmHg 34%
    21:00 +25°C° 0 mm 3 mps 689 mmHg 39%
    22:00 +24°C° 0 mm 3 mps 689 mmHg 43%
    23:00 +24°C° 0 mm 2 mps 689 mmHg 45%

    23 September, Saturday

    Time Temperature Precipitation Wind Pressure Humidity
    00:00 +23°C° 0 mm 2 mps 689 mmHg 48%
    01:00 +23°C° 0 mm 2 mps 689 mmHg 50%
    02:00 +22°C° 0 mm 1 mps 689 mmHg 51%
    03:00 +22°C° 0 mm 1 mps 689 mmHg 52%
    04:00 +22°C° 0 mm 1 mps 688 mmHg 53%
    05:00 +22°C° 0 mm 1 mps 688 mmHg 52%
    06:00 +22°C° 0 mm 1 mps 689 mmHg 52%
    07:00 +22°C° 0 mm 1 mps 689 mmHg 51%
    08:00 +23°C° 0 mm 2 mps 689 mmHg 46%
    09:00 +24°C° 0 mm 2 mps 690 mmHg 41%
    10:00 +26°C° 0 mm 2 mps 690 mmHg 35%
    11:00 +27°C° 0 mm 2 mps 690 mmHg 33%
    12:00 +27°C° 0 mm 2 mps 690 mmHg 30%
    13:00 +28°C° 0 mm 2 mps 690 mmHg 28%
    14:00 +28°C° 0 mm 2 mps 690 mmHg 27%
    15:00 +29°C° 0 mm 2 mps 690 mmHg 26%
    16:00 +29°C° 0 mm 3 mps 689 mmHg 25%
    17:00 +28°C° 0.1 mm 2 mps 689 mmHg 29%
    18:00 +27°C° 0.1 mm 2 mps 689 mmHg 33%
    19:00 +26°C° 0.1 mm 2 mps 689 mmHg 37%
    20:00 +25°C° 0 mm 2 mps 689 mmHg 39%
    21:00 +25°C° 0 mm 2 mps 689 mmHg 42%
    22:00 +24°C° 0 mm 2 mps 689 mmHg 44%
    23:00 +23°C° 0.2 mm 2 mps 689 mmHg 47%

    24 September, Sunday

    Time Temperature Precipitation Wind Pressure Humidity
    00:00 +23°C° 0.2 mm 2 mps 689 mmHg 51%
    01:00 +21°C° 0.2 mm 2 mps 688 mmHg 54%
    02:00 +21°C° 0 mm 2 mps 688 mmHg 55%
    03:00 +20°C° 0 mm 2 mps 688 mmHg 56%
    04:00 +20°C° 0 mm 2 mps 687 mmHg 57%
    05:00 +20°C° 0.2 mm 2 mps 688 mmHg 58%
    06:00 +20°C° 0.2 mm 2 mps 688 mmHg 58%
    07:00 +20°C° 0.2 mm 2 mps 688 mmHg 59%
    08:00 +22°C° 0.1 mm 3 mps 688 mmHg 52%
    09:00 +24°C° 0.1 mm 3 mps 689 mmHg 45%
    10:00 +26°C° 0.1 mm 4 mps 689 mmHg 38%
    11:00 +27°C° 0 mm 4 mps 689 mmHg 35%
    12:00 +28°C° 0 mm 5 mps 689 mmHg 32%
    13:00 +29°C° 0 mm 5 mps 689 mmHg 29%
    14:00 +29°C° 0 mm 6 mps 689 mmHg 30%
    15:00 +28°C° 0 mm 6 mps 688 mmHg 31%
    16:00 +28°C° 0 mm 6 mps 688 mmHg 32%
    17:00 +27°C° 0 mm 6 mps 688 mmHg 36%
    18:00 +26°C° 0 mm 7 mps 688 mmHg 41%
    19:00 +24°C° 0 mm 7 mps 688 mmHg 45%
    20:00 +23°C° 0 mm 6 mps 688 mmHg 49%
    21:00 +22°C° 0 mm 5 mps 689 mmHg 54%
    22:00 +21°C° 0 mm 4 mps 689 mmHg 58%
    23:00 +20°C° 0 mm 3 mps 689 mmHg 61%

    25 September, Monday

    Time Temperature Precipitation Wind Pressure Humidity
    00:00 +20°C° 0 mm 2 mps 688 mmHg 63%
    01:00 +19°C° 0 mm 2 mps 688 mmHg 66%
    02:00 +20°C° 0 mm 1 mps 688 mmHg 68%
    03:00 +19°C° 0 mm 1 mps 687 mmHg 70%
    04:00 +19°C° 0 mm 1 mps 687 mmHg 71%
    05:00 +19°C° 0 mm 1 mps 687 mmHg 70%
    06:00 +19°C° 0 mm 1 mps 687 mmHg 69%
    07:00 +17°C° 0 mm 0 mps 687 mmHg 68%
    08:00 +18°C° 0 mm 0 mps 687 mmHg 60%
    09:00 +19°C° 0 mm 0 mps 688 mmHg 52%
    10:00 +21°C° 0 mm 0 mps 688 mmHg 44%
    11:00 +24°C° 0 mm 1 mps 688 mmHg 39%
    12:00 +25°C° 0 mm 2 mps 688 mmHg 34%
    13:00 +26°C° 0 mm 3 mps 688 mmHg 30%
    14:00 +26°C° 0 mm 3 mps 687 mmHg 29%
    15:00 +27°C° 0 mm 3 mps 687 mmHg 28%
    16:00 +27°C° 0 mm 4 mps 687 mmHg 28%
    17:00 +26°C° 0 mm 3 mps 687 mmHg 30%
    18:00 +26°C° 0 mm 3 mps 687 mmHg 33%
    19:00 +25°C° 0 mm 3 mps 687 mmHg 35%
    20:00 +24°C° 0.1 mm 3 mps 687 mmHg 39%
    21:00 +22°C° 0.1 mm 3 mps 687 mmHg 43%
    22:00 +22°C° 0.1 mm 3 mps 687 mmHg 47%
    23:00 +21°C° 0.1 mm 2 mps 686 mmHg 52%
    Show more